Location: Arthurs Seat
(13.1500°N, 59.6000°W)
Time: 08:10:38
(UTC+00:00)

Cosmos 2221 Rocket - Pass Details

Date: 25 August 2019
Orbit: 621 x 647 km, 82.5° (Epoch: 15 October)

Event Time Altitude Azimuth Distance (km) Brightness Sun altitude
Rises 23:33:22 0° 0° (N) 2,893 7.2 -19.6°
Reaches altitude 10° 23:35:37 10° 4° (N) 1,989 6.3 -20.1°
Maximum altitude 23:39:58 64° 85° (E) 693 3.5 -21.2°
Enters shadow 23:40:35 56° 128° (SE) 741 3.6 -21.3°
